STARLINK-35154, 65612

Orbit data source: Space-Track

STARLINK-35154, 65612 is a payload satellite owned by SpaceX/Seattle (US) in SSO that was launched on Sat, 13 Sep 2025 UTC via an FALCON 9 launch vehicle from the Air Force Eastern Test Range (AFETR). Payload-class satellites include a variety of spacecraft equipped with specific instruments for various scientific and technological missions. These include communications satellites like Starlink; space stations such as the ISS; scientific satellites like the Hubble; Earth observation satellites from companies like Planet Labs, Umbra, and HawkEye 360; GPS; miniature CubeSats for education and research; and military/defense satellites.

Loading next visibility...
Identifier
65612, 2025-207W
Orbit
SSO
Country
Flag of USUS
Related business
Manufacturer
SpaceX/Seattle
Mission
Operational Commercial Communications
Bus & Motor
STARLINK V2MO, Unknown motor
Mass
575 kg wet, ~530 kg dry
Launch date (UTC)
2025-09-13 (9 months ago)
Launch vehicle
FALCON 9
Launch site
Air Force Eastern Test Range (AFETR)
Object type
Payload
Rocket body
Debris
Shape & HBR
Box + 2 Pan, 17.7 m
Radar Cross Section
36.964 m², Large (>1 m²)

Expand to show TLE details & history
Last TLE update: 16 hours ago

TLE from 16 hours ago
0 STARLINK-35154
1 65612U 25207W   26166.43862240 -.00000138  00000-0 -56222-5 0  9992
2 65612  97.3561 234.1496 0002140  94.3003 265.8469 15.05660143 42814
Epoch: 2026-06-15T10:31Z
TLE epoch observation values (Epoch: 2026-06-15T10:31:36.975Z)
Latitude
-0.00002°
Longitude
172.52054°
Altitude
552.66 km
Speed
7.585 km/s
True Right ascension
15h 36m 35s
True Declination
0° 00' 00"
Sunlit
Object was in full shadow at epoch
Visualization orbit readout
Latitude
Unknown
Longitude
Unknown
Altitude
Unknown
Speed
Unknown
Apparent Right ascension
Unknown
Apparent Declination
Unknown
Sunlit
N/A
Visualization observer readout
Local Sidereal Time
13:36:25
Azimuth
Unknown
Elevation
Unknown
Doppler factor
Unknown
Orbital elements
Apogee altitude
547.945 km
Perigee altitude
544.981 km
Semi-major axis
6,924.6 km
Eccentricity
0.00021
Inclination
97.3561°
RAAN
234.1496°
Arg. of periapsis
94.3003°
True anomaly
265.82244°
Mean anomaly
265.8469°
Eccentric anomaly
265.83467°
Mean motion
3.76661 °/min
Orbital period
95.58 mins
BSTAR
-0.0000056222
Loading maneuver chart data...
Computing Atmospheric mass density...
Loading historical data...
Loading historical data...
Loading historical data...
Loading historical data...
Loading historical data...
Loading historical data...
Loading historical data...

Documentation

Showing up to 5 results
|